Location: ??
(35.5052°N, 139.7262°E)
Time: 18:26:12
(UTC+00:00)

CZ-4C R/B - Pass Details

Date: 20 June 2021
Orbit: 606 x 1396 km, 63.4° (Epoch: 29 July)

Event Time Altitude Azimuth Distance (km) Brightness Sun altitude
Exits shadow 18:43:05 - 261° (W) 2,377 4.0 -8.1°
Reaches altitude 10° 18:43:53 10° 267° (W) 2,151 3.8 -8.0°
Maximum altitude 18:47:36 21° 317° (NW) 1,647 3.7 -7.4°
Drops below altitude 10° 18:51:51 10° 7° (N) 2,482 5.3 -6.7°
Sets 18:55:12 0° 22° (NNE) 3,581 6.5 -6.1°
